Location: Unspecified
(0.0000°N, 0.0000°E)
Time: 16:28:16
(UTC+00:00)

Vanguard 1 Rocket - Pass Details

Date: 27 January 2020
Orbit: 650 x 4226 km, 34.3° (Epoch: 24 February)

Event Time Altitude Azimuth Distance (km) Brightness Sun altitude
Rises 19:50:32 0° 280° (W) 8,362 13.3 -23.1°
Reaches altitude 10° 19:57:32 10° 271° (W) 7,429 12.9 -24.8°
Maximum altitude 20:19:01 33° 215° (SW) 5,079 11.5 -29.8°
Drops below altitude 10° 20:34:39 10° 156° (SSE) 5,397 11.3 -33.4°
Sets 20:38:48 0° 145° (SE) 5,931 11.4 -34.4°
